Time,TemperatureF,DewpointF,PressureIn,WindDirection,WindDirectionDegrees,WindSpeedMPH,WindSpeedGustMPH,Humidity,HourlyPrecipIn,Conditions,Clouds,dailyrainin,SolarRadiationWatts/m^2,SoftwareType,DateUTC
2013-01-19 00:00:00,40.6,29.4,30.22,SSE,167,0.0,0.0,64,0.00,,,0.00,0,Wunderground v.1.15,2013-01-19 08:00:00,
2013-01-19 00:10:00,40.5,29.3,30.22,SSE,167,0.0,0.0,64,0.00,,,0.00,0,Wunderground v.1.15,2013-01-19 08:10:00,
2013-01-19 00:20:00,40.1,29.3,30.22,SSE,166,1.0,3.0,65,0.00,,,0.00,0,Wunderground v.1.15,2013-01-19 08:20:00,
2013-01-19 00:30:00,39.6,29.9,30.22,South,170,3.0,3.0,68,0.00,,,0.00,0,Wunderground v.1.15,2013-01-19 08:30:00,
2013-01-19 00:40:00,39.3,29.6,30.22,SSE,158,4.0,4.0,68,0.00,,,0.00,0,Wunderground v.1.15,2013-01-19 08:40:00,
2013-01-19 00:50:00,38.9,29.6,30.22,SSE,160,4.0,4.0,69,0.00,,,0.00,0,Wunderground v.1.15,2013-01-19 08:50:00,
2013-01-19 01:00:00,38.9,29.6,30.22,South,173,3.0,3.0,69,0.00,,,0.00,0,Wunderground v.1.15,2013-01-19 09:00:00,
2013-01-19 01:10:00,39.5,30.2,30.23,SSE,156,3.0,3.0,69,0.00,,,0.00,0,Wunderground v.1.15,2013-01-19 09:10:00,
2013-01-19 01:20:00,39.8,30.1,30.23,SSE,156,3.0,6.0,68,0.00,,,0.00,0,Wunderground v.1.15,2013-01-19 09:20:00,
2013-01-19 01:30:00,39.5,29.8,30.23,SSE,157,4.0,4.0,68,0.00,,,0.00,0,Wunderground v.1.15,2013-01-19 09:30:00,
2013-01-19 01:40:00,39.8,30.1,30.23,SSE,161,3.0,4.0,68,0.00,,,0.00,0,Wunderground v.1.15,2013-01-19 09:40:00,
2013-01-19 01:50:00,40.1,30.0,30.23,South,171,2.0,4.0,67,0.00,,,0.00,0,Wunderground v.1.15,2013-01-19 09:50:00,
2013-01-19 02:00:00,38.9,29.6,30.23,SSE,164,3.0,3.0,69,0.00,,,0.00,0,Wunderground v.1.15,2013-01-19 10:00:00,
2013-01-19 02:10:00,38.9,29.9,30.24,SSE,164,0.0,0.0,70,0.00,,,0.00,0,Wunderground v.1.15,2013-01-19 10:10:00,
2013-01-19 02:20:00,38.8,29.1,30.24,SSE,164,0.0,0.0,68,0.00,,,0.00,0,Wunderground v.1.15,2013-01-19 10:20:00,
2013-01-19 02:30:00,38.8,29.1,30.24,SSE,164,0.0,0.0,68,0.00,,,0.00,0,Wunderground v.1.15,2013-01-19 10:30:00,
2013-01-19 02:40:00,37.5,28.6,30.24,SSE,165,2.0,2.0,70,0.00,,,0.00,0,Wunderground v.1.15,2013-01-19 10:40:00,
2013-01-19 02:50:00,36.7,28.5,30.24,South,170,2.0,2.0,72,0.00,,,0.00,0,Wunderground v.1.15,2013-01-19 10:50:00,
2013-01-19 03:00:00,36.3,28.8,30.24,South,169,2.0,2.0,74,0.00,,,0.00,0,Wunderground v.1.15,2013-01-19 11:00:00,
2013-01-19 03:10:00,37.0,29.5,30.24,South,175,2.0,2.0,74,0.00,,,0.00,0,Wunderground v.1.15,2013-01-19 11:10:00,
2013-01-19 04:50:00,36.2,29.7,30.25,SSE,164,1.0,1.0,77,0.00,,,0.00,0,Wunderground v.1.15,2013-01-19 12:50:00,
2013-01-19 05:00:00,36.5,29.7,30.25,SSE,165,2.0,2.0,76,0.00,,,0.00,0,Wunderground v.1.15,2013-01-19 13:00:00,
2013-01-19 05:10:00,36.5,29.3,30.25,SSE,165,3.0,3.0,75,0.00,,,0.00,0,Wunderground v.1.15,2013-01-19 13:10:00,
2013-01-19 05:20:00,36.5,29.3,30.26,SSE,159,4.0,4.0,75,0.00,,,0.00,0,Wunderground v.1.15,2013-01-19 13:20:00,
2013-01-19 05:30:00,36.4,28.9,30.26,SSE,166,2.0,2.0,74,0.00,,,0.00,0,Wunderground v.1.15,2013-01-19 13:30:00,
2013-01-19 05:40:00,35.9,28.4,30.26,SSE,165,1.0,2.0,74,0.00,,,0.00,0,Wunderground v.1.15,2013-01-19 13:40:00,
2013-01-19 05:50:00,35.3,28.5,30.27,SSE,161,3.0,4.0,76,0.00,,,0.00,0,Wunderground v.1.15,2013-01-19 13:50:00,
2013-01-19 06:00:00,34.8,28.3,30.27,SSE,157,4.0,6.0,77,0.00,,,0.00,0,Wunderground v.1.15,2013-01-19 14:00:00,
2013-01-19 06:10:00,34.5,28.0,30.27,SSE,161,4.0,4.0,77,0.00,,,0.00,0,Wunderground v.1.15,2013-01-19 14:10:00,
2013-01-19 06:20:00,34.2,28.1,30.27,SSE,163,2.0,2.0,78,0.00,,,0.00,0,Wunderground v.1.15,2013-01-19 14:20:00,
2013-01-19 06:31:00,34.0,28.2,30.27,SSE,162,1.0,3.0,79,0.00,,,0.00,0,Wunderground v.1.15,2013-01-19 14:31:00,
2013-01-19 06:40:00,33.9,28.4,30.27,SSE,162,3.0,3.0,80,0.00,,,0.00,0,Wunderground v.1.15,2013-01-19 14:40:00,
2013-01-19 06:50:00,33.5,27.7,30.28,SSE,154,4.0,4.0,79,0.00,,,0.00,0,Wunderground v.1.15,2013-01-19 14:50:00,
2013-01-19 07:00:00,33.5,28.3,30.28,SSE,155,5.0,5.0,81,0.00,,,0.00,0,Wunderground v.1.15,2013-01-19 15:00:00,
2013-01-19 07:10:00,33.7,28.2,30.28,SSE,159,5.0,5.0,80,0.00,,,0.00,0,Wunderground v.1.15,2013-01-19 15:10:00,
2013-01-19 07:20:00,33.3,27.8,30.28,SSE,165,4.0,4.0,80,0.00,,,0.00,5,Wunderground v.1.15,2013-01-19 15:20:00,
2013-01-19 07:30:00,33.3,28.1,30.28,South,178,3.0,3.0,81,0.00,,,0.00,12,Wunderground v.1.15,2013-01-19 15:30:00,
2013-01-19 07:40:00,33.6,28.7,30.29,SSE,168,1.0,3.0,82,0.00,,,0.00,18,Wunderground v.1.15,2013-01-19 15:40:00,
2013-01-19 07:50:00,34.1,29.5,30.29,South,169,0.0,0.0,83,0.00,,,0.00,35,Wunderground v.1.15,2013-01-19 15:50:00,
2013-01-19 08:00:00,34.6,30.0,30.29,South,169,0.0,0.0,83,0.00,,,0.00,58,Wunderground v.1.15,2013-01-19 16:00:00,
2013-01-19 08:10:00,36.4,31.1,30.29,South,169,0.0,0.0,81,0.00,,,0.00,86,Wunderground v.1.15,2013-01-19 16:10:00,
2013-01-19 08:20:00,36.7,30.8,30.30,South,169,0.0,0.0,79,0.00,,,0.00,116,Wunderground v.1.15,2013-01-19 16:20:00,
2013-01-19 08:30:00,37.4,31.5,30.30,South,169,0.0,0.0,79,0.00,,,0.00,153,Wunderground v.1.15,2013-01-19 16:30:00,
2013-01-19 08:40:00,39.0,33.0,30.30,South,169,0.0,0.0,79,0.00,,,0.00,190,Wunderground v.1.15,2013-01-19 16:40:00,
2013-01-19 08:50:00,40.2,32.9,30.30,South,169,0.0,0.0,75,0.00,,,0.00,227,Wunderground v.1.15,2013-01-19 16:50:00,
2013-01-19 09:00:00,40.7,33.4,30.30,South,171,0.0,0.0,75,0.00,,,0.00,264,Wunderground v.1.15,2013-01-19 17:00:00,
2013-01-19 09:10:00,43.1,34.3,30.31,WSW,255,0.0,0.0,71,0.00,,,0.00,292,Wunderground v.1.15,2013-01-19 17:10:00,
2013-01-19 09:30:00,45.5,33.6,30.31,West,259,2.0,2.0,63,0.00,,,0.00,345,Wunderground v.1.15,2013-01-19 17:30:00,
2013-01-19 09:40:00,45.8,33.9,30.31,West,279,2.0,2.0,63,0.00,,,0.00,366,Wunderground v.1.15,2013-01-19 17:40:00,
2013-01-19 09:50:00,46.3,33.6,30.32,West,279,2.0,4.0,61,0.00,,,0.00,392,Wunderground v.1.15,2013-01-19 17:50:00,
2013-01-19 10:00:00,46.4,34.1,30.32,WNW,296,3.0,3.0,62,0.00,,,0.00,411,Wunderground v.1.15,2013-01-19 18:00:00,
2013-01-19 10:20:00,48.8,34.7,30.32,WNW,296,2.0,2.0,58,0.00,,,0.00,450,Wunderground v.1.15,2013-01-19 18:20:00,
2013-01-19 10:30:00,50.8,34.7,30.31,WNW,301,3.0,3.0,54,0.00,,,0.00,462,Wunderground v.1.15,2013-01-19 18:30:00,
2013-01-19 10:40:00,51.7,34.1,30.31,North,360,4.0,4.0,51,0.00,,,0.00,469,Wunderground v.1.15,2013-01-19 18:40:00,
2013-01-19 10:50:00,53.0,34.3,30.30,NNE,17,3.0,6.0,49,0.00,,,0.00,499,Wunderground v.1.15,2013-01-19 18:50:00,
2013-01-19 11:00:00,53.2,34.0,30.30,NW,318,4.0,4.0,48,0.00,,,0.00,513,Wunderground v.1.15,2013-01-19 19:00:00,
2013-01-19 11:10:00,53.7,33.4,30.29,NNW,336,5.0,5.0,46,0.00,,,0.00,524,Wunderground v.1.15,2013-01-19 19:10:00,
2013-01-19 11:20:00,55.1,33.6,30.29,North,355,3.0,3.0,44,0.00,,,0.00,534,Wunderground v.1.15,2013-01-19 19:20:00,
2013-01-19 11:30:00,55.8,33.0,30.29,NW,315,5.0,5.0,42,0.00,,,0.00,547,Wunderground v.1.15,2013-01-19 19:30:00,
2013-01-19 11:50:00,56.0,33.2,30.27,West,275,4.0,5.0,42,0.00,,,0.00,561,Wunderground v.1.15,2013-01-19 19:50:00,
2013-01-19 12:00:00,56.5,34.3,30.27,West,279,4.0,4.0,43,0.00,,,0.00,561,Wunderground v.1.15,2013-01-19 20:00:00,
2013-01-19 12:10:00,56.8,33.3,30.27,North,5,4.0,9.0,41,0.00,,,0.00,570,Wunderground v.1.15,2013-01-19 20:10:00,
2013-01-19 12:20:00,57.0,33.5,30.26,North,360,5.0,5.0,41,0.00,,,0.00,548,Wunderground v.1.15,2013-01-19 20:20:00,
2013-01-19 12:30:00,57.3,33.8,30.26,North,11,4.0,9.0,41,0.00,,,0.00,559,Wunderground v.1.15,2013-01-19 20:30:00,
2013-01-19 12:40:00,57.7,34.7,30.25,NNW,336,4.0,6.0,42,0.00,,,0.00,540,Wunderground v.1.15,2013-01-19 20:40:00,
2013-01-19 12:50:00,57.7,34.7,30.25,North,360,5.0,6.0,42,0.00,,,0.00,541,Wunderground v.1.15,2013-01-19 20:50:00,
2013-01-19 13:00:00,58.0,35.6,30.25,NNW,338,5.0,7.0,43,0.00,,,0.00,522,Wunderground v.1.15,2013-01-19 21:00:00,
2013-01-19 13:10:00,57.9,35.5,30.25,NNW,338,6.0,6.0,43,0.00,,,0.00,271,Wunderground v.1.15,2013-01-19 21:10:00,
2013-01-19 13:30:00,58.2,35.8,30.24,North,355,7.0,7.0,43,0.00,,,0.00,476,Wunderground v.1.15,2013-01-19 21:30:00,
2013-01-19 13:40:00,59.0,35.3,30.24,NW,316,5.0,5.0,41,0.00,,,0.00,271,Wunderground v.1.15,2013-01-19 21:40:00,
2013-01-19 14:00:00,58.6,35.0,30.23,NNE,25,7.0,7.0,41,0.00,,,0.00,274,Wunderground v.1.15,2013-01-19 22:00:00,
2013-01-19 14:10:00,58.4,35.4,30.23,North,11,8.0,8.0,42,0.00,,,0.00,53,Wunderground v.1.15,2013-01-19 22:10:00,
2013-01-19 14:30:00,58.6,35.6,30.23,North,360,7.0,10.0,42,0.00,,,0.00,111,Wunderground v.1.15,2013-01-19 22:30:00,
2013-01-19 14:50:00,58.5,36.1,30.23,North,355,6.0,6.0,43,0.00,,,0.00,54,Wunderground v.1.15,2013-01-19 22:50:00,
2013-01-19 15:00:00,58.5,36.1,30.23,NNW,333,7.0,12.0,43,0.00,,,0.00,95,Wunderground v.1.15,2013-01-19 23:00:00,
2013-01-19 15:10:00,58.5,36.1,30.22,North,349,6.0,6.0,43,0.00,,,0.00,49,Wunderground v.1.15,2013-01-19 23:10:00,
2013-01-19 15:20:00,58.7,36.2,30.22,North,355,6.0,9.0,43,0.00,,,0.00,51,Wunderground v.1.15,2013-01-19 23:20:00,
2013-01-19 15:30:00,58.8,36.9,30.22,NNW,327,6.0,6.0,44,0.00,,,0.00,35,Wunderground v.1.15,2013-01-19 23:30:00,
2013-01-19 15:40:00,58.9,37.0,30.22,NNW,341,5.0,6.0,44,0.00,,,0.00,33,Wunderground v.1.15,2013-01-19 23:40:00,
2013-01-19 15:51:00,59.0,37.1,30.22,North,360,5.0,5.0,44,0.00,,,0.00,33,Wunderground v.1.15,2013-01-19 23:51:00,
2013-01-19 16:00:00,59.0,37.1,30.22,NNW,330,4.0,4.0,44,0.00,,,0.00,32,Wunderground v.1.15,2013-01-20 00:00:00,
2013-01-19 16:10:00,59.0,36.5,30.22,NNW,327,4.0,4.0,43,0.00,,,0.00,30,Wunderground v.1.15,2013-01-20 00:10:00,
2013-01-19 16:20:00,59.0,36.5,30.22,NNW,344,5.0,5.0,43,0.00,,,0.00,28,Wunderground v.1.15,2013-01-20 00:20:00,
2013-01-19 16:30:00,58.8,36.3,30.22,NW,324,4.0,6.0,43,0.00,,,0.00,25,Wunderground v.1.15,2013-01-20 00:30:00,
2013-01-19 16:40:00,58.6,36.2,30.22,WNW,302,2.0,2.0,43,0.00,,,0.00,19,Wunderground v.1.15,2013-01-20 00:40:00,
2013-01-19 17:00:00,57.8,36.0,30.22,NW,313,2.0,4.0,44,0.00,,,0.00,11,Wunderground v.1.15,2013-01-20 01:00:00,
2013-01-19 17:10:00,57.3,35.6,30.22,NW,306,3.0,4.0,44,0.00,,,0.00,7,Wunderground v.1.15,2013-01-20 01:10:00,
2013-01-19 17:30:00,56.8,35.1,30.22,WNW,293,3.0,3.0,44,0.00,,,0.00,0,Wunderground v.1.15,2013-01-20 01:30:00,
2013-01-19 17:40:00,56.6,35.5,30.22,West,268,2.0,2.0,45,0.00,,,0.00,0,Wunderground v.1.15,2013-01-20 01:40:00,
2013-01-19 18:00:00,55.7,35.2,30.22,West,263,2.0,2.0,46,0.00,,,0.00,0,Wunderground v.1.15,2013-01-20 02:00:00,
2013-01-19 18:10:00,55.4,34.9,30.22,West,271,2.0,2.0,46,0.00,,,0.00,0,Wunderground v.1.15,2013-01-20 02:10:00,
2013-01-19 18:20:00,55.0,34.6,30.23,West,271,0.0,0.0,46,0.00,,,0.00,0,Wunderground v.1.15,2013-01-20 02:20:00,
2013-01-19 18:30:00,54.5,34.7,30.23,West,271,0.0,0.0,47,0.00,,,0.00,0,Wunderground v.1.15,2013-01-20 02:30:00,
2013-01-19 18:40:00,53.3,36.1,30.23,SSE,166,2.0,2.0,52,0.00,,,0.00,0,Wunderground v.1.15,2013-01-20 02:40:00,
2013-01-19 18:50:00,51.4,35.8,30.23,SSE,148,4.0,7.0,55,0.00,,,0.00,0,Wunderground v.1.15,2013-01-20 02:50:00,
2013-01-19 19:00:00,49.9,34.8,30.23,SSE,157,5.0,5.0,56,0.00,,,0.00,0,Wunderground v.1.15,2013-01-20 03:00:00,
2013-01-19 19:10:00,49.2,34.6,30.23,SSE,159,4.0,5.0,57,0.00,,,0.00,0,Wunderground v.1.15,2013-01-20 03:10:00,
2013-01-19 19:20:00,48.2,34.5,30.24,SSE,155,4.0,5.0,59,0.00,,,0.00,0,Wunderground v.1.15,2013-01-20 03:20:00,
2013-01-19 19:40:00,46.1,34.2,30.24,SSE,167,4.0,4.0,63,0.00,,,0.00,0,Wunderground v.1.15,2013-01-20 03:40:00,
2013-01-19 19:50:00,45.6,34.1,30.24,SSE,159,3.0,3.0,64,0.00,,,0.00,0,Wunderground v.1.15,2013-01-20 03:50:00,
2013-01-19 20:00:00,46.0,34.1,30.24,SSE,165,3.0,4.0,63,0.00,,,0.00,0,Wunderground v.1.15,2013-01-20 04:00:00,
2013-01-19 20:10:00,46.0,34.1,30.25,SSE,165,3.0,3.0,63,0.00,,,0.00,0,Wunderground v.1.15,2013-01-20 04:10:00,
2013-01-19 20:20:00,45.7,33.8,30.25,South,169,2.0,2.0,63,0.00,,,0.00,0,Wunderground v.1.15,2013-01-20 04:20:00,
2013-01-19 20:30:00,45.5,33.6,30.25,South,170,1.0,1.0,63,0.00,,,0.00,0,Wunderground v.1.15,2013-01-20 04:30:00,
2013-01-19 20:40:00,44.6,33.6,30.25,South,169,2.0,2.0,65,0.00,,,0.00,0,Wunderground v.1.15,2013-01-20 04:40:00,
2013-01-19 20:50:00,44.5,33.5,30.26,SSE,151,2.0,2.0,65,0.00,,,0.00,0,Wunderground v.1.15,2013-01-20 04:50:00,
2013-01-19 21:10:00,44.6,33.2,30.25,South,173,0.0,0.0,64,0.00,,,0.00,0,Wunderground v.1.15,2013-01-20 05:10:00,
2013-01-19 21:20:00,44.5,33.1,30.26,South,173,0.0,0.0,64,0.00,,,0.00,0,Wunderground v.1.15,2013-01-20 05:20:00,
2013-01-19 21:30:00,44.3,32.9,30.26,South,173,0.0,0.0,64,0.00,,,0.00,0,Wunderground v.1.15,2013-01-20 05:30:00,
2013-01-19 21:40:00,44.1,33.5,30.26,South,172,1.0,1.0,66,0.00,,,0.00,0,Wunderground v.1.15,2013-01-20 05:40:00,
2013-01-19 21:50:00,43.7,33.1,30.26,South,173,1.0,3.0,66,0.00,,,0.00,0,Wunderground v.1.15,2013-01-20 05:50:00,
2013-01-19 22:00:00,43.7,33.8,30.27,SSE,167,2.0,2.0,68,0.00,,,0.00,0,Wunderground v.1.15,2013-01-20 06:00:00,
2013-01-19 22:10:00,43.3,33.8,30.27,South,173,1.0,1.0,69,0.00,,,0.00,0,Wunderground v.1.15,2013-01-20 06:10:00,
2013-01-19 22:20:00,43.0,33.5,30.27,South,173,0.0,0.0,69,0.00,,,0.00,0,Wunderground v.1.15,2013-01-20 06:20:00,
2013-01-19 22:30:00,42.7,33.2,30.27,South,173,0.0,0.0,69,0.00,,,0.00,0,Wunderground v.1.15,2013-01-20 06:30:00,
2013-01-19 22:40:00,42.2,33.1,30.27,South,173,1.0,3.0,70,0.00,,,0.00,0,Wunderground v.1.15,2013-01-20 06:40:00,
2013-01-19 22:50:00,41.6,32.5,30.28,South,173,2.0,3.0,70,0.00,,,0.00,0,Wunderground v.1.15,2013-01-20 06:50:00,
2013-01-19 23:00:00,41.1,32.4,30.28,South,173,2.0,2.0,71,0.00,,,0.00,0,Wunderground v.1.15,2013-01-20 07:00:00,
2013-01-19 23:10:00,40.0,32.0,30.27,SSE,161,4.0,4.0,73,0.00,,,0.00,0,Wunderground v.1.15,2013-01-20 07:10:00,
2013-01-19 23:20:00,39.2,32.3,30.27,SSE,165,5.0,5.0,76,0.00,,,0.00,0,Wunderground v.1.15,2013-01-20 07:20:00,
2013-01-19 23:30:00,38.8,32.2,30.27,SSE,161,4.0,4.0,77,0.00,,,0.00,0,Wunderground v.1.15,2013-01-20 07:30:00,
2013-01-19 23:40:00,38.7,32.4,30.27,SSE,160,5.0,6.0,78,0.00,,,0.00,0,Wunderground v.1.15,2013-01-20 07:40:00,
2013-01-19 23:50:00,38.4,32.1,30.27,SSE,157,5.0,5.0,78,0.00,,,0.00,0,Wunderground v.1.15,2013-01-20 07:50:00,